Regional Weather Roundup
Issued by NWS

Home | Current Version | Previous Version | Graphics & Text | Print | Product List | Glossary Off
Versions: 1 2 3 4 5 6 7 8 9 10 11 12 13 14 15 16 17 18 19 20 21 22 23 24 25 26 27 28 29 30 31 32 33 34 35 36 37 38 39 40 41 42 43 44 45 46 47 48 49 50

000
ASUS43 KTOP 041459
RWRKS

WEATHER ROUNDUP FOR KANSAS
NATIONAL WEATHER SERVICE GOODLAND KS
1000 AM CDT SAT JUL 04 2015

NOTE:  "FAIR" INDICATES FEW OR NO CLOUDS BELOW 12,000 FEET WITH NO
SIGNIFICANT WEATHER AND/OR OBSTRUCTIONS TO VISIBILITY.

KSZ001>006-013>018-027>032-041>047-041600-
NORTHWEST KANSAS

CITY           SKY/WX    TMP DP  RH WIND       PRES   REMARKS
GOODLAND       SUNNY     74  62  66 S17       29.99F
HAYS           SUNNY     77  61  57 S17       30.00S
HILL CITY      SUNNY     79  63  57 S16       29.98F
RUSSELL        SUNNY     75  66  73 S13       29.99S
$$

KSZ061>065-074>080-084>089-041600-
SOUTHWEST KANSAS

CITY           SKY/WX    TMP DP  RH WIND       PRES   REMARKS
DODGE CITY     SUNNY     75  64  68 S14       30.01S
ELKHART          N/A     75  58  55 S14         N/A
GARDEN CITY    SUNNY     74  63  68 S15       30.00F
GREAT BEND     SUNNY     73  64  73 S13       30.02S
LIBERAL        SUNNY     79  64  61 S9        30.04S
$$

KSZ066>073-081>083-090>101-041600-
SOUTHEAST KANSAS

CITY           SKY/WX    TMP DP  RH WIND       PRES   REMARKS
CHANUTE        SUNNY     76  64  66 SE7       30.02R
COFFEYVILLE    MOSUNNY   79  68  69 VRB5      30.00R
HUTCHINSON     SUNNY     76  66  71 SE9       30.02S
MEDICINE LODGE   N/A     77  67  71 SE9       30.00S
NEWTON         SUNNY     75  63  64 SE8       30.05S
PARSONS        SUNNY     79  67  66 VRB6      30.02R
WICHITA INTL   MOSUNNY   76  66  71 SE7       30.01S
WICHITA JABRA  SUNNY     77  66  68 MISG      30.02R
WINFIELD       MOSUNNY   78  67  68 SE8       30.01S
$$

KSZ007>012-019>026-033>040-048>060-102>105-041600-
NORTHEAST KANSAS

CITY           SKY/WX    TMP DP  RH WIND       PRES   REMARKS
CONCORDIA      MOSUNNY   74  61  63 S12       30.01S
EMPORIA        SUNNY     75  62  64 SE9       30.03R
LAWRENCE       SUNNY     73  63  70 E3        30.03R
MANHATTAN      SUNNY     75  63  66 CALM      30.01F
OLATHE IND     SUNNY     75  62  64 E7        30.04R
OLATHE EXE     SUNNY     72  62  71 S6        30.03R
SALINA         SUNNY     79  64  60 S9        30.01S
TOPEKA BILLARD SUNNY     74  65  73 CALM      30.03R
TOPEKA FORBES  SUNNY     75  63  66 SE5       30.03R
$$



USA.gov is the U.S. government's official web portal to all federal, state and local government web resources and services.